Location: Unspecified
(0.0000°N, 0.0000°E)
Time: 17:50:47
(UTC+00:00)

STARLINK 1022 - Pass Details

Date: 24 January 2020
Orbit: 548 x 551 km, 53.0° (Epoch: 17 January)

Event Time Altitude Azimuth Distance (km) Brightness Sun altitude
Exits shadow 04:38:06 14° 14° (NNE) 1,582 5.9 -22.1°
Drops below altitude 10° 04:38:42 10° 17° (NNE) 1,806 6.2 -21.9°
Sets 04:40:59 0° 24° (NNE) 2,696 7.2 -21.4°
